Regional Weather Roundup
Issued by NWS Albany, NY

Home | Current Version | Previous Version | Text Only | Print | Product List | Glossary On
Versions: 1 2 3 4 5 6 7 8 9 10 11 12 13 14 15 16 17 18 19 20 21 22 23 24 25 26 27
000
ASUS41 KALY 270410
RWRALY

NEW YORK STATE HOURLY WEATHER ROUNDUP
NATIONAL WEATHER SERVICE ALBANY NY
1200 AM EDT SAT AUG 27 2016

NOTE: "FAIR" INDICATES FEW OR NO CLOUDS BELOW 12,000 FEET WITH NO
SIGNIFICANT WEATHER AND/OR NO OBSTRUCTIONS TO VISIBILITY.

NYZ032-033-038>043-046>054-057>066-NYZ062>081-082-084-270500-
EAST


CITY           SKY/WX    TMP DP  RH WIND       PRES   REMARKS
ALBANY         CLEAR     68  60  75 S5        30.10R
GLENS FALLS    CLEAR     64  59  83 CALM      30.09R
POUGHKEEPSIE   CLEAR     65  63  93 CALM      30.09R
NEWBURGH       CLEAR     68  64  88 NW5       30.12R
MONTGOMERY     CLEAR     67  63  87 CALM      30.10R
WHITE PLAINS   CLEAR     71  65  81 CALM      30.09R
ISLIP          PTCLDY    74  66  76 NW8       30.05R
NEW YORK CITY  PTCLDY    82  64  54 N9        30.06R
CENTRAL PARK     N/A     81  63  54 MISG        N/A
$$

NYZ005>009-017-018-044>046-055-056-270500-
CENTRAL


CITY           SKY/WX    TMP DP  RH WIND       PRES   REMARKS
FULTON         CLEAR     65  62  90 S3        30.13R
SYRACUSE       PTCLDY    67  63  87 CALM      30.12S
ROME           CLEAR     63  62  97 CALM      30.14S
ELMIRA         CLEAR     66  62  87 SW3       30.16R
BINGHAMTON     CLEAR     69  61  75 N5        30.18R
MONTICELLO     CLEAR     64  61  88 MISG      30.17R
$$

NYZ026>034-041>043-087-270500-
NORTH


CITY           SKY/WX    TMP DP  RH WIND       PRES   REMARKS
WATERTOWN      CLEAR     67  62  84 CALM      30.11R
FORT DRUM      NOT AVBL
MASSENA        CLEAR     64  61  90 CALM      30.08R
SARANAC LAKE   MOCLDY    57  54  89 CALM      30.14R
PLATTSBURGH    CLOUDY    70  60  70 W5        30.07R
$$

NYZ001>004-010>016-019>021-085-270500-
WEST


CITY           SKY/WX    TMP DP  RH WIND       PRES   REMARKS
NIAGARA FALLS  PTCLDY    71  61  70 N7        30.16R
BUFFALO        MOCLDY    72  66  81 SW5       30.16R
DUNKIRK        CLOUDY    66  63  90 SW5       30.18R
JAMESTOWN      CLEAR     61  55  82 CALM      30.22R
WELLSVILLE     CLEAR     65  58  78 CALM      30.25R
ROCHESTER      PTCLDY    69  65  86 W5        30.15R
PENN YAN       CLEAR     69  66  90 CALM      30.17R
$$

             KEY
       WCI = WIND CHILL INDEX
       VSB = VISIBILITY
       HX  = HEAT INDEX
$$




USA.gov is the U.S. government's official web portal to all federal, state and local government web resources and services.